[[{"header":{"parameterUnit":"m.s-1","parameterCategory":2,"la1":30.2991,"la2":30.254,"lo1":-89.0895,"lo2":-89.0444,"dy":0.0017,"dx":0.0017,"nx":28,"ny":28,"refTime":"2025-11-05T09:00:00:Z","depth":"0","parameterNumber":2,"parameterNumberName":"U-component_of_CURRENTS"},"data":[0,0,0,0,0,0,0,0,0,0,0,0,0,0,0,0,0,0,0,0,0,0,0,0,0,0,0,0,0,0,0,0,0,0,0,0,0,0,0,0,0,0,0,0,0,0,0,0,0,0,0,0,0,0,0,0,0,0,0.3117,0.3117,0,0.3095,0.3095,0.3094,0.3056,0.3056,0.3055,0.3055,0.3013,0.3013,0.3012,0,0,0,0,0,0,0,0,0,0,0,0,0,0.3128,0.3128,0.3117,0.3117,0.3118,0.3095,0.3095,0.3094,0.3056,0.3056,0.3055,0.3055,0.3014,0.3013,0.3012,0,0,0,0,0,0,0,0,0,0,0,0,0,0.3113,0.3128,0.3117,0.3099,0.3097,0.3096,0.3095,0.3094,0.3056,0.3056,0.3055,0.3055,0.3014,0.3013,0.3012,0.3015,0,0,0.3008,0.3008,0,0,0,0,0,0,0,0,0.3114,0.3112,0.3101,0.31,0.3098,0.3081,0.3084,0.3068,0.3056,0.3068,0.3055,0.3054,0.3037,0.3034,0.3026,0.3013,0.3012,0.3008,0.3007,0.3007,0.3006,0,0,0,0,0,0,0,0.3115,0.3113,0.3105,0.3102,0.31,0.3093,0.3089,0.308,0.3052,0.3067,0.3065,0.3069,0.3036,0.3027,0.3025,0.3011,0.3008,0.3007,0.3006,0.3006,0.303,0.3031,0,0,0,0,0,0,0.3126,0.3114,0.3105,0.3104,0.3109,0.3093,0.3089,0.3084,0.3053,0.3049,0.3069,0.3067,0.3029,0.3026,0.3023,0.3048,0.3007,0.3006,0.3005,0.3029,0.303,0.3032,0,0,0,0,0,0,0.3126,0.3125,0.3106,0.3112,0.311,0.3094,0.3088,0.3084,0.308,0.3056,0.305,0.3071,0.3029,0.3025,0.3025,0.3045,0.3005,0.3004,0.3027,0.3029,0.3031,0.3083,0,0,0,0,0,0,0.3126,0.3125,0.3125,0.3113,0.311,0.3112,0.3089,0.3084,0.3085,0.3082,0.3055,0.305,0.3028,0.3027,0.3024,0.3042,0.3003,0.3025,0.3028,0.303,0.3079,0.3086,0.3092,0,0,0,0,0,0.3127,0.3124,0.3125,0.3124,0.311,0.3113,0.311,0.3094,0.3086,0.3088,0.3074,0.3051,0.3041,0.3027,0.3023,0.3042,0.3024,0.3027,0.303,0.3076,0.3085,0.3092,0,0,0,0,0,0,0.3123,0.312,0.3121,0.3116,0.3121,0.3108,0.3107,0.3103,0.3093,0.3089,0.3063,0.3058,0.3071,0.3052,0.3037,0.3059,0.3031,0.3034,0.3068,0.3075,0.3082,0.3105,0.3002,0,0,0,0,0,0.3127,0.3126,0.3128,0.3126,0.313,0.3123,0.3123,0.3117,0.3108,0.3103,0.3088,0.3077,0.308,0.3073,0.307,0.3075,0.3086,0.3088,0.3094,0.31,0.3117,0.3158,0.3169,0.3042,0.3042,0.3041,0,0,0.3125,0.3126,0.3124,0.3127,0.3126,0.3137,0.312,0.3124,0.3134,0.3101,0.3106,0.3101,0.3089,0.31,0.3103,0.3084,0.3141,0.3103,0.3108,0.3123,0.3162,0.3175,0.3186,0.3044,0.3043,0.3043,0,0,0.3124,0.3124,0.3126,0.3136,0.3146,0.3148,0.3155,0.3152,0.315,0.3158,0.3147,0.316,0.3143,0.315,0.3149,0.3192,0.3179,0.3185,0.3227,0.3266,0.3277,0.3287,0.3313,0.3324,0.3181,0.3181,0.3181,0,0.3125,0.3123,0.3129,0.3141,0.3148,0.3158,0.3167,0.3176,0.3174,0.3186,0.3165,0.3187,0.3173,0.3209,0.3222,0.3208,0.3222,0.3195,0.3275,0.3285,0.3294,0.3318,0.3331,0.3184,0.3184,0.3183,0.3183,0,0.3126,0.3133,0.3137,0.3157,0.317,0.3178,0.3199,0.3213,0.3214,0.3229,0.3264,0.3255,0.327,0.327,0.3254,0.3317,0.3304,0.3283,0.3255,0.331,0.3332,0.3344,0.3188,0.3187,0.3186,0.3185,0,0,0.3101,0.313,0.3132,0.3141,0.3175,0.3182,0.3218,0.325,0.3284,0.3294,0.3334,0.3349,0.336,0.3362,0.3354,0.3386,0.3456,0.3363,0.3364,0.3389,0.3539,0.3493,0.3501,0.3448,0.3451,0.3453,0.3527,0,0.3097,0.3113,0.3134,0.3156,0.3163,0.3195,0.3232,0.3272,0.3305,0.3353,0.3377,0.3416,0.3391,0.3404,0.3436,0.346,0.3491,0.3438,0.3483,0.3484,0.3437,0.3515,0.3362,0.3412,0.3538,0.354,0.3542,0,0.3082,0.3097,0.3109,0.3151,0.3159,0.3183,0.3243,0.3281,0.3368,0.3403,0.346,0.3481,0.3545,0.3506,0.3585,0.3552,0.3555,0.3565,0.3567,0.3518,0.3461,0.3379,0.3429,0.3334,0.356,0.3558,0.3557,0,0.3037,0.3074,0.3079,0.3091,0.3148,0.3166,0.3205,0.3291,0.3343,0.3447,0.3494,0.3571,0.3608,0.3642,0.366,0.3629,0.3741,0.3693,0.3657,0.3653,0.353,0.3511,0.3494,0.3751,0.3751,0.3751,0.3751,0,0.3007,0.301,0.3058,0.3059,0.3088,0.3142,0.3197,0.3261,0.337,0.3436,0.3517,0.3577,0.3646,0.3703,0.3705,0.3731,0.3777,0.3693,0.3682,0.3542,0.3524,0.344,0.3386,0.3754,0.3753,0.3752,0.3752,0,0.2947,0.2975,0.2986,0.3043,0.3062,0.3085,0.3184,0.3231,0.3349,0.3436,0.3472,0.361,0.3689,0.3744,0.3814,0.3785,0.3703,0.3802,0.3632,0.3599,0.3452,0.3407,0.3298,0.3197,0.3775,0.3775,0.3774,0,0.2911,0.2909,0.2962,0.297,0.299,0.3039,0.3076,0.3205,0.3265,0.3437,0.347,0.3599,0.3668,0.3782,0.3778,0.3804,0.3676,0.3652,0.3564,0.3451,0.3393,0.3275,0.3189,0.3419,0.3416,0.3413,0.3411,0,0.2846,0.2867,0.2879,0.2903,0.2928,0.2964,0.3028,0.3078,0.322,0.3301,0.3414,0.3496,0.3632,0.3613,0.3668,0.3655,0.3465,0.3596,0.3522,0.3163,0.299,0.2883,0.3363,0.3387,0.339,0.3391,0.3393,0.3394,0.2793,0.2786,0.2805,0.2816,0.2843,0.2856,0.2851,0.2932,0.3004,0.3087,0.3261,0.3317,0.3408,0.3481,0.3459,0.3322,0.3316,0.3184,0.3156,0.3062,0.2905,0.3338,0.3321,0.3323,0.3325,0.3326,0.3328,0,0.2707,0.2704,0.2714,0.2712,0.2694,0.2747,0.2783,0.2753,0.2763,0.2898,0.298,0.3038,0.3044,0.3093,0.3038,0.29,0.2776,0.2795,0.2586,0.2536,0.2962,0.2887,0.2721,0.2721,0.2721,0.2722,0.2722,0.2722,0.2659,0.2621,0.262,0.2551,0.255,0.2469,0.2455,0.2439,0.2488,0.2502,0.2529,0.2631,0.2782,0.2786,0.265,0.2581,0.2364,0.2242,0.2254,0.2549,0.2582,0.2614,0.2533,0.2296,0.2295,0.1717,0.1712,0.1709]},{"header":{"parameterUnit":"m.s-1","parameterCategory":2,"la1":30.2991,"la2":30.254,"lo1":-89.0895,"lo2":-89.0444,"dy":0.0017,"dx":0.0017,"nx":28,"ny":28,"refTime":"2025-11-05T09:00:00:Z","depth":"0","parameterNumber":3,"parameterNumberName":"V-component_of_CURRENTS"},"data":[0,0,0,0,0,0,0,0,0,0,0,0,0,0,0,0,0,0,0,0,0,0,0,0,0,0,0,0,0,0,0,0,0,0,0,0,0,0,0,0,0,0,0,0,0,0,0,0,0,0,0,0,0,0,0,0,0,0,0.0099,0.0099,0,0.0049,0.0048,0.0048,0.0015,0.0015,0.0015,0.0015,-0.006,-0.0062,-0.0064,0,0,0,0,0,0,0,0,0,0,0,0,0,0.0103,0.0104,0.0099,0.0099,0.0099,0.0049,0.0048,0.0048,0.0015,0.0015,0.0015,0.0015,-0.0059,-0.0062,-0.0064,0,0,0,0,0,0,0,0,0,0,0,0,0,0.0081,0.0104,0.01,0.0078,0.0075,0.005,0.0048,0.0047,0.0015,0.0015,0.0015,0.0015,-0.0059,-0.0062,-0.0064,-0.0082,0,0,-0.0073,-0.0075,0,0,0,0,0,0,0,0,0.0082,0.008,0.0081,0.0079,0.0077,0.004,0.0022,0.0004,0.0015,0.0036,0.0015,0.0015,-0.0028,-0.0033,-0.0045,-0.0085,-0.0088,-0.0074,-0.0075,-0.0077,-0.0078,0,0,0,0,0,0,0,0.0084,0.0082,0.0078,0.0081,0.0078,0.0049,0.0046,0.0018,0.0003,0.0034,0.0032,0.0029,-0.0029,-0.0042,-0.0047,-0.0089,-0.0074,-0.0076,-0.0078,-0.0079,-0.0136,-0.0136,0,0,0,0,0,0,0.0097,0.0084,0.0079,0.0076,0.0081,0.0049,0.0046,0.005,0.0004,-0.0003,0.003,0.0028,-0.0037,-0.0043,-0.005,-0.0051,-0.0077,-0.0079,-0.0081,-0.0137,-0.0136,-0.0136,0,0,0,0,0,0,0.0098,0.0098,0.0081,0.008,0.0076,0.005,0.0055,0.0049,0.0041,0.0001,-0.0006,0.0028,-0.0037,-0.0046,-0.0064,-0.0055,-0.0081,-0.0083,-0.0137,-0.0137,-0.0136,-0.0067,0,0,0,0,0,0,0.0098,0.0098,0.0105,0.0081,0.0077,0.0076,0.0055,0.0048,0.004,0.0038,-0.0003,-0.001,-0.0038,-0.006,-0.0067,-0.0059,-0.0086,-0.0137,-0.0137,-0.0136,-0.0069,-0.0064,-0.0059,0,0,0,0,0,0.0099,0.0113,0.0106,0.0105,0.0087,0.0077,0.0072,0.0051,0.0041,0.0042,0.0015,-0.0009,-0.0062,-0.0062,-0.0071,-0.0063,-0.0138,-0.0137,-0.0136,-0.0071,-0.0065,-0.0059,0,0,0,0,0,0,0.0116,0.011,0.0102,0.0113,0.01,0.0073,0.0072,0.0057,0.0036,0.0034,-0.0006,-0.0014,-0.0029,-0.0056,-0.0055,-0.0079,-0.0104,-0.0106,-0.0052,-0.0046,-0.0041,-0.0018,-0.0088,0,0,0,0,0,0.0124,0.0134,0.0119,0.0126,0.0123,0.0098,0.009,0.0078,0.0057,0.0048,0.002,-0.0011,-0.0036,-0.0047,-0.0076,-0.0087,-0.011,-0.0089,-0.0084,-0.008,-0.0067,-0.0094,-0.009,-0.0134,-0.0134,-0.0134,0,0,0.0131,0.013,0.0134,0.0131,0.0117,0.0126,0.0093,0.0089,0.0094,0.0042,0.0038,0.0004,-0.0036,-0.0048,-0.0057,-0.0068,-0.008,-0.0079,-0.0075,-0.0064,-0.0093,-0.0089,-0.0085,-0.0134,-0.0134,-0.0134,0,0,0.0157,0.0152,0.017,0.0166,0.0157,0.0145,0.0149,0.0127,0.0116,0.0105,0.007,0.0047,0.0007,-0.0014,-0.0032,-0.0017,-0.0055,-0.0031,0.0017,-0.001,-0.0006,-0.0003,-0.0025,-0.0025,-0.0025,-0.0025,-0.0025,0,0.0166,0.0191,0.0172,0.0189,0.0195,0.0161,0.0184,0.0167,0.0141,0.014,0.0114,0.0063,0.0026,0.0018,0.0021,-0.0004,-0.0025,-0.0,-0.0002,0.0001,0.0003,-0.0021,-0.0021,-0.0022,-0.0022,-0.0023,-0.0023,0,0.0208,0.0226,0.0236,0.0252,0.0252,0.0265,0.0247,0.0239,0.0219,0.0206,0.0188,0.0133,0.0108,0.0086,0.0057,0.0055,0.0034,0.0007,-0.0012,0.0012,-0.0015,-0.0017,-0.0017,-0.0018,-0.0019,-0.002,0,0,0.0242,0.0264,0.0269,0.0291,0.0291,0.03,0.0304,0.0309,0.0329,0.028,0.0296,0.0237,0.0209,0.0187,0.0141,0.0115,0.0104,0.0073,0.007,0.0061,0.005,0.0038,0.0034,0.0076,0.0076,0.0076,0.0026,0,0.0285,0.0338,0.0334,0.0383,0.0411,0.0385,0.0398,0.0393,0.0384,0.0388,0.0323,0.0317,0.0247,0.0238,0.02,0.0134,0.0103,0.012,0.002,0.0018,0.0012,0.0033,0.0059,0.0017,0.0024,0.0024,0.0024,0,0.0334,0.0366,0.0423,0.0462,0.0472,0.0489,0.0518,0.0529,0.0519,0.0511,0.0485,0.0436,0.0391,0.0323,0.022,0.0235,0.0152,0.0089,0.0085,0.0051,0.0003,-0.0008,0.0013,-0.0112,0.0021,0.0021,0.0021,0,0.0382,0.0432,0.0484,0.0497,0.0528,0.0542,0.056,0.0567,0.0604,0.0595,0.0614,0.0543,0.052,0.0403,0.0265,0.0245,0.015,0.0104,0.0011,0.0009,0.0001,-0.0002,-0.0101,0.0028,0.0028,0.0028,0.0028,0,0.0439,0.0481,0.0511,0.0539,0.0608,0.0603,0.0677,0.0679,0.0711,0.0773,0.0686,0.0713,0.054,0.0457,0.031,0.0168,0.0181,0.003,-0.0001,0.0025,0.0025,-0.0109,-0.0195,0.0026,0.0027,0.0027,0.0027,0,0.0486,0.0503,0.057,0.0613,0.0632,0.0683,0.0762,0.082,0.083,0.0904,0.0903,0.0853,0.0752,0.0567,0.0394,0.0247,0.0022,0.0035,0.0079,0.0055,-0.0152,-0.0234,-0.0375,-0.0425,-0.007,-0.0071,-0.0071,0,0.0516,0.0554,0.0629,0.0679,0.0702,0.0778,0.0836,0.0877,0.0955,0.0998,0.1045,0.0969,0.0949,0.0691,0.0423,0.0171,0.0021,0.0011,-0.003,-0.0148,-0.0264,-0.0323,-0.0359,-0.0017,-0.0017,-0.0017,-0.0017,0,0.0577,0.0599,0.0654,0.0757,0.0827,0.0925,0.1012,0.1093,0.1147,0.1213,0.1288,0.1274,0.103,0.0811,0.0454,0.0263,-0.0069,0.0003,-0.0131,-0.0234,-0.0293,-0.036,-0.0002,-0.0017,-0.0017,-0.0017,-0.0017,-0.0017,0.062,0.0671,0.0742,0.0843,0.0931,0.105,0.1144,0.1255,0.1388,0.1495,0.1477,0.1494,0.1151,0.0688,0.0417,-0.0056,-0.0073,-0.0199,-0.029,-0.0338,-0.0385,-0.0023,-0.0067,-0.0067,-0.0068,-0.0068,-0.0068,0,0.0673,0.0731,0.0825,0.0941,0.1048,0.1087,0.1247,0.1353,0.152,0.1628,0.1701,0.155,0.1138,0.0682,0.0046,-0.028,-0.0399,-0.0465,-0.0544,-0.0568,-0.025,-0.0244,-0.0313,-0.0313,-0.0313,-0.0313,-0.0313,-0.0313,0.07,0.079,0.0837,0.1012,0.1102,0.125,0.1347,0.1508,0.1627,0.1772,0.1795,0.1779,0.1411,0.0327,-0.0397,-0.0562,-0.078,-0.084,-0.0951,-0.074,-0.0721,-0.0704,-0.0718,-0.0885,-0.0886,-0.1202,-0.1205,-0.1208]}],[{"header":{"parameterUnit":"m.s-1","parameterCategory":2,"la1":30.2991,"la2":30.254,"lo1":-89.0895,"lo2":-89.0444,"dy":0.0017,"dx":0.0017,"nx":28,"ny":28,"refTime":"2025-11-05T09:00:00:Z","depth":"2","parameterNumber":2,"parameterNumberName":"U-component_of_CURRENTS"},"data":[0,0,0,0,0,0,0,0,0,0,0,0,0,0,0,0,0,0,0,0,0,0,0,0,0,0,0,0,0,0,0,0,0,0,0,0,0,0,0,0,0,0,0,0,0,0,0,0,0,0,0,0,0,0,0,0,0,0,0.2693,0.2693,0,0.2687,0.2686,0.2686,0.267,0.267,0.267,0.267,0.2657,0.2657,0.2657,0,0,0,0,0,0,0,0,0,0,0,0,0,0.2688,0.2688,0.2693,0.2693,0.2693,0.2687,0.2686,0.2686,0.267,0.267,0.267,0.267,0.2657,0.2657,0.2657,0,0,0,0,0,0,0,0,0,0,0,0,0,0.2684,0.2688,0.2693,0.2687,0.2686,0.2687,0.2686,0.2686,0.267,0.267,0.267,0.267,0.2658,0.2657,0.2657,0.2656,0,0,0.2656,0.2655,0,0,0,0,0,0,0,0,0.2684,0.2684,0.2687,0.2687,0.2687,0.2682,0.268,0.2677,0.267,0.2673,0.267,0.267,0.2667,0.2666,0.2661,0.2656,0.2655,0.2655,0.2655,0.2655,0.2655,0,0,0,0,0,0,0,0.2684,0.2684,0.2687,0.2688,0.2687,0.2684,0.2682,0.2679,0.2668,0.2673,0.2673,0.2677,0.2666,0.2661,0.266,0.2655,0.2655,0.2655,0.2655,0.2655,0.2693,0.2695,0,0,0,0,0,0,0.2691,0.2684,0.2688,0.2688,0.2688,0.2684,0.2683,0.2681,0.2669,0.2667,0.2677,0.2676,0.2662,0.2661,0.266,0.2697,0.2655,0.2655,0.2654,0.2692,0.2694,0.2695,0,0,0,0,0,0,0.2691,0.2691,0.2688,0.2688,0.2688,0.2684,0.2683,0.2681,0.2688,0.2672,0.267,0.2687,0.2662,0.266,0.2671,0.2695,0.2654,0.2654,0.2691,0.2693,0.2694,0.2747,0,0,0,0,0,0,0.2691,0.2691,0.2696,0.2689,0.2688,0.2699,0.2683,0.2681,0.2691,0.269,0.268,0.2678,0.2662,0.2671,0.267,0.2694,0.2654,0.2689,0.2692,0.2694,0.2744,0.2751,0.2756,0,0,0,0,0,0.2691,0.2694,0.2696,0.2697,0.2694,0.27,0.2699,0.2694,0.2692,0.2699,0.2694,0.2679,0.2686,0.2672,0.267,0.2694,0.2688,0.2691,0.2694,0.2741,0.2749,0.2756,0,0,0,0,0,0,0.269,0.2693,0.2695,0.2698,0.2706,0.2698,0.2704,0.2704,0.2705,0.2707,0.269,0.2688,0.2711,0.2696,0.2681,0.2714,0.2687,0.2689,0.2723,0.2731,0.2737,0.2755,0.2653,0,0,0,0,0,0.2695,0.27,0.2704,0.2709,0.2714,0.2714,0.2718,0.2718,0.2717,0.2718,0.2712,0.2711,0.272,0.2719,0.2722,0.2734,0.2742,0.2751,0.2757,0.2762,0.2777,0.2812,0.2823,0.2704,0.2704,0.2704,0,0,0.2695,0.27,0.2702,0.2711,0.2714,0.2727,0.2715,0.2728,0.2742,0.2717,0.2734,0.2736,0.273,0.2748,0.2756,0.2738,0.28,0.2766,0.277,0.2783,0.2816,0.2828,0.2838,0.2706,0.2706,0.2706,0,0,0.2701,0.2706,0.2714,0.2725,0.2741,0.2744,0.2754,0.2759,0.2765,0.2781,0.2775,0.2795,0.2792,0.28,0.2802,0.2846,0.2838,0.2845,0.2885,0.2919,0.2929,0.2938,0.2963,0.2974,0.2842,0.2842,0.2842,0,0.2704,0.2709,0.2718,0.2733,0.2743,0.2756,0.2769,0.2783,0.2792,0.2806,0.2794,0.2826,0.282,0.2856,0.2872,0.2862,0.2876,0.2854,0.2928,0.2937,0.2945,0.2969,0.298,0.2845,0.2845,0.2845,0.2844,0,0.2712,0.2724,0.2731,0.2755,0.277,0.2783,0.2806,0.2826,0.2837,0.2853,0.2894,0.2893,0.2913,0.2917,0.2907,0.2967,0.2957,0.2936,0.2908,0.296,0.2982,0.2993,0.2849,0.2848,0.2847,0.2847,0,0,0.2693,0.2728,0.2731,0.2743,0.278,0.2789,0.2829,0.2862,0.2898,0.2917,0.2959,0.2983,0.2997,0.3002,0.3,0.3028,0.3097,0.3011,0.3011,0.3037,0.3174,0.3109,0.3115,0.309,0.3092,0.3094,0.3165,0,0.2694,0.2716,0.2738,0.2765,0.2775,0.2809,0.2847,0.2888,0.2925,0.2974,0.3,0.3043,0.3026,0.3045,0.3075,0.3098,0.3129,0.308,0.3119,0.3121,0.3058,0.3126,0.2866,0.2903,0.3175,0.3177,0.3178,0,0.2685,0.2702,0.2723,0.2766,0.2775,0.2802,0.2863,0.2902,0.2986,0.3022,0.3079,0.3104,0.3167,0.3136,0.3209,0.318,0.3189,0.3197,0.3199,0.3131,0.3077,0.2895,0.2912,0.3196,0.3195,0.3193,0.3192,0,0.2646,0.2687,0.2699,0.2713,0.2771,0.2793,0.2833,0.2916,0.2965,0.3067,0.3114,0.3185,0.3228,0.3259,0.328,0.3255,0.3351,0.3311,0.3261,0.3256,0.3039,0.3011,0.3365,0.3365,0.3365,0.3365,0.3365,0,0.2622,0.2632,0.2684,0.269,0.2723,0.2776,0.2833,0.2895,0.2996,0.3058,0.314,0.3195,0.3263,0.3315,0.3319,0.3333,0.3384,0.3292,0.328,0.305,0.3023,0.3274,0.3263,0.3367,0.3367,0.3366,0.3366,0,0.2571,0.2603,0.262,0.268,0.2703,0.2729,0.2824,0.2868,0.2981,0.3065,0.3102,0.3229,0.3302,0.3351,0.3414,0.3379,0.3397,0.3381,0.3108,0.3063,0.3268,0.3259,0.3341,0.3339,0.3338,0.3337,0.3336,0,0.2542,0.2546,0.2603,0.2614,0.264,0.2692,0.2728,0.2848,0.29,0.3066,0.3095,0.3218,0.3272,0.3358,0.3331,0.334,0.3391,0.309,0.2994,0.3291,0.3271,0.3263,0.3256,0.2725,0.2719,0.2714,0.2711,0,0.2489,0.2512,0.2527,0.2555,0.2584,0.2618,0.2682,0.2722,0.2856,0.2928,0.3024,0.3091,0.3194,0.3094,0.3128,0.309,0.3069,0.2994,0.3383,0.2775,0.2717,0.2695,0.2707,0.2668,0.2673,0.2676,0.2678,0.268,0.2445,0.2441,0.2463,0.2477,0.2507,0.2518,0.251,0.258,0.2636,0.2705,0.2851,0.2855,0.2903,0.2824,0.2743,0.2674,0.2883,0.2729,0.274,0.2758,0.2678,0.2621,0.2539,0.2542,0.2545,0.2548,0.255,0,0.2372,0.2372,0.2382,0.2379,0.2358,0.242,0.2448,0.2409,0.2404,0.2502,0.2554,0.237,0.2325,0.2368,0.2207,0.2215,0.2166,0.2112,0.2013,0.2058,0.2098,0.198,0.1659,0.1656,0.1653,0.165,0,0,0.2332,0.2298,0.2293,0.2222,0.2224,0.2154,0.2141,0.2111,0.2133,0.2093,0.2071,0.224,0.2318,0.1958,0.1917,0.1757,0.1891,0.1689,0.2411,0.2342,0.2378,0.2469,0.2343,0,0,0,0,0]},{"header":{"parameterUnit":"m.s-1","parameterCategory":2,"la1":30.2991,"la2":30.254,"lo1":-89.0895,"lo2":-89.0444,"dy":0.0017,"dx":0.0017,"nx":28,"ny":28,"refTime":"2025-11-05T09:00:00:Z","depth":"2","parameterNumber":3,"parameterNumberName":"V-component_of_CURRENTS"},"data":[0,0,0,0,0,0,0,0,0,0,0,0,0,0,0,0,0,0,0,0,0,0,0,0,0,0,0,0,0,0,0,0,0,0,0,0,0,0,0,0,0,0,0,0,0,0,0,0,0,0,0,0,0,0,0,0,0,0,0.0265,0.0265,0,0.0222,0.0222,0.0221,0.0194,0.0194,0.0194,0.0194,0.0135,0.0134,0.0133,0,0,0,0,0,0,0,0,0,0,0,0,0,0.0268,0.0268,0.0265,0.0265,0.0264,0.0222,0.0222,0.0221,0.0194,0.0194,0.0194,0.0194,0.0136,0.0134,0.0132,0,0,0,0,0,0,0,0,0,0,0,0,0,0.0249,0.0269,0.0265,0.0247,0.0245,0.0223,0.0222,0.0221,0.0194,0.0194,0.0194,0.0194,0.0137,0.0134,0.0132,0.012,0,0,0.0125,0.0124,0,0,0,0,0,0,0,0,0.025,0.0249,0.025,0.0248,0.0246,0.0214,0.0201,0.0187,0.0194,0.0212,0.0194,0.0194,0.0161,0.0157,0.0148,0.0117,0.0114,0.0125,0.0124,0.0123,0.0122,0,0,0,0,0,0,0,0.0252,0.025,0.0247,0.0249,0.0247,0.0221,0.0219,0.0198,0.0186,0.0211,0.0209,0.0206,0.016,0.015,0.0146,0.0114,0.0125,0.0123,0.0122,0.0121,0.0074,0.0074,0,0,0,0,0,0,0.0263,0.0252,0.0248,0.0246,0.0249,0.0222,0.0219,0.0224,0.0187,0.0182,0.0206,0.0205,0.0154,0.0149,0.0144,0.0143,0.0123,0.0121,0.0119,0.0074,0.0074,0.0074,0,0,0,0,0,0,0.0263,0.0263,0.025,0.0248,0.0245,0.0222,0.0227,0.0223,0.0216,0.0184,0.0178,0.0204,0.0154,0.0147,0.0133,0.014,0.012,0.0117,0.0074,0.0074,0.0074,0.013,0,0,0,0,0,0,0.0263,0.0263,0.0269,0.0249,0.0246,0.0244,0.0227,0.0222,0.0214,0.0212,0.018,0.0174,0.0153,0.0136,0.0131,0.0136,0.0116,0.0074,0.0074,0.0074,0.0128,0.0132,0.0136,0,0,0,0,0,0.0264,0.0275,0.027,0.0269,0.0255,0.0245,0.0241,0.0223,0.0214,0.0215,0.0195,0.0175,0.0133,0.0135,0.0128,0.0133,0.0074,0.0074,0.0074,0.0127,0.0132,0.0136,0,0,0,0,0,0,0.0277,0.0273,0.0267,0.0276,0.0264,0.0241,0.0239,0.0227,0.021,0.0209,0.0178,0.0172,0.016,0.0138,0.014,0.0119,0.01,0.0099,0.0142,0.0146,0.015,0.0169,0.0114,0,0,0,0,0,0.0284,0.0294,0.028,0.0287,0.0283,0.0262,0.0255,0.0244,0.0227,0.022,0.0197,0.0173,0.0154,0.0145,0.0123,0.0114,0.0089,0.0111,0.0115,0.0118,0.0128,0.0096,0.0098,0.0075,0.0075,0.0075,0,0,0.029,0.0289,0.0293,0.029,0.0279,0.0285,0.0257,0.0252,0.0256,0.0216,0.0213,0.0185,0.0154,0.0144,0.0137,0.0129,0.011,0.0118,0.0122,0.013,0.0096,0.0098,0.01,0.0075,0.0075,0.0075,0,0,0.031,0.0307,0.0323,0.0318,0.031,0.03,0.0302,0.0283,0.0273,0.0264,0.0237,0.0218,0.0187,0.017,0.0156,0.0167,0.013,0.0156,0.0192,0.0161,0.0163,0.0164,0.0133,0.0131,0.0159,0.0159,0.0159,0,0.0317,0.0339,0.0323,0.0336,0.0341,0.0313,0.0331,0.0316,0.0294,0.0293,0.0271,0.0229,0.0201,0.0194,0.0197,0.0177,0.0152,0.018,0.0167,0.0168,0.0168,0.0136,0.0133,0.0162,0.0162,0.0161,0.0161,0,0.035,0.0366,0.0374,0.0388,0.0388,0.0398,0.0382,0.0375,0.0358,0.0347,0.033,0.0284,0.0264,0.0246,0.0225,0.0216,0.0195,0.0175,0.0159,0.0174,0.0139,0.0135,0.0166,0.0165,0.0164,0.0164,0,0,0.0376,0.0396,0.04,0.042,0.042,0.0428,0.0431,0.0434,0.045,0.0407,0.0416,0.0369,0.0344,0.0327,0.0289,0.0259,0.0236,0.0224,0.0221,0.0201,0.0166,0.0148,0.0142,0.0212,0.0212,0.0212,0.014,0,0.041,0.0455,0.0453,0.0495,0.0519,0.0499,0.051,0.0506,0.0496,0.0495,0.0437,0.0432,0.0376,0.0368,0.0328,0.0265,0.0229,0.0257,0.0149,0.0146,0.0134,0.0138,0.0158,0.0095,0.0136,0.0135,0.0135,0,0.0448,0.0477,0.0526,0.0562,0.0571,0.0587,0.0612,0.0621,0.0607,0.0599,0.0572,0.0529,0.0482,0.0428,0.032,0.0341,0.0262,0.0201,0.0196,0.016,0.0121,0.0086,0.0086,0.0128,0.0129,0.0129,0.013,0,0.0487,0.0531,0.0577,0.0588,0.0618,0.0632,0.0648,0.0654,0.0684,0.067,0.0683,0.0612,0.0585,0.0473,0.0344,0.0334,0.0218,0.0187,0.0091,0.0089,0.0075,0.0073,0.0106,0.0106,0.0106,0.0106,0.0107,0,0.0532,0.0568,0.0599,0.0624,0.0686,0.0684,0.0748,0.0749,0.0772,0.0822,0.0745,0.0757,0.0596,0.0507,0.0373,0.0226,0.0237,0.0102,0.0071,0.0095,0.0094,0.0099,0.0099,0.0104,0.0104,0.0105,0.0105,0,0.0569,0.0585,0.0645,0.0687,0.0706,0.0751,0.0822,0.0872,0.0877,0.0933,0.0931,0.0871,0.076,0.0586,0.0412,0.0279,0.0131,0.0072,0.011,0.0086,0.0012,0.0016,-0.004,-0.0041,-0.0042,-0.0043,-0.0044,0,0.0593,0.0626,0.0696,0.0741,0.0763,0.0832,0.0886,0.0923,0.0987,0.1008,0.1043,0.0953,0.091,0.0643,0.04,0.016,0.0127,0.0014,-0.0006,0.0022,-0.0002,0.0003,0.0008,-0.0007,-0.0007,-0.0008,-0.0008,0,0.0642,0.0663,0.0713,0.0806,0.0871,0.096,0.1039,0.1105,0.1149,0.1193,0.1229,0.1191,0.0941,0.0711,0.038,0.0215,0.0052,0.0,0.002,0.0031,0.0048,0.0026,0.0031,-0.001,-0.001,-0.001,-0.001,-0.001,0.0677,0.0722,0.0787,0.0878,0.096,0.1068,0.1147,0.1237,0.1339,0.1397,0.1364,0.1306,0.104,0.0624,0.0338,0.0032,0.0048,-0.0066,-0.0063,-0.006,-0.0039,-0.0024,-0.0093,-0.0093,-0.0094,-0.0094,-0.0094,0,0.0722,0.0772,0.0856,0.0962,0.1058,0.1099,0.1237,0.1316,0.1434,0.1477,0.1499,0.1241,0.0979,0.0664,0.0217,-0.0046,-0.0066,-0.0136,-0.01,-0.0095,-0.0092,-0.0071,-0.0134,-0.0135,-0.0136,-0.0137,0,0,0.0744,0.0824,0.0866,0.1021,0.1103,0.1235,0.1317,0.1426,0.149,0.1535,0.1501,0.144,0.1066,0.0737,0.0381,0.0121,0.007,0.0065,0.0126,0.0216,0.0223,-0.0022,0.0018,0,0,0,0,0]}],[{"header":{"parameterUnit":"m.s-1","parameterCategory":2,"la1":30.2991,"la2":30.254,"lo1":-89.0895,"lo2":-89.0444,"dy":0.0017,"dx":0.0017,"nx":28,"ny":28,"refTime":"2025-11-05T09:00:00:Z","depth":"4","parameterNumber":2,"parameterNumberName":"U-component_of_CURRENTS"},"data":[0,0,0,0,0,0,0,0,0,0,0,0,0,0,0,0,0,0,0,0,0,0,0,0,0,0,0,0,0,0,0,0,0,0,0,0,0,0,0,0,0,0,0,0,0,0,0,0,0,0,0,0,0,0,0,0,0,0,0.1741,0.1741,0,0.1783,0.1783,0.1783,0.1828,0.1829,0.183,0.1831,0.1888,0.1889,0.189,0,0,0,0,0,0,0,0,0,0,0,0,0,0.1687,0.1688,0.1741,0.1741,0.1742,0.1783,0.1783,0.1783,0.1828,0.1829,0.183,0.1831,0.1888,0.1889,0.189,0,0,0,0,0,0,0,0,0,0,0,0,0,0.1716,0.1688,0.174,0.1771,0.1774,0.1783,0.1783,0.1783,0.1828,0.1829,0.1831,0.1832,0.1888,0.1889,0.189,0.1871,0,0,0.1893,0.1894,0,0,0,0,0,0,0,0,0.1714,0.1717,0.1766,0.1769,0.1773,0.1804,0.1785,0.1814,0.1828,0.1805,0.1831,0.1832,0.1862,0.1865,0.1867,0.1874,0.1876,0.1893,0.1894,0.1895,0.1895,0,0,0,0,0,0,0,0.1712,0.1716,0.1755,0.1767,0.1771,0.1779,0.1784,0.1791,0.1824,0.1807,0.1811,0.1819,0.1864,0.1866,0.1869,0.1877,0.1893,0.1894,0.1895,0.1895,0.1981,0.1982,0,0,0,0,0,0,0.1711,0.1714,0.1754,0.1757,0.1748,0.1779,0.1785,0.1791,0.1824,0.1831,0.1818,0.1821,0.1863,0.1867,0.1871,0.1949,0.1894,0.1896,0.1896,0.1979,0.1981,0.1983,0,0,0,0,0,0,0.1709,0.1713,0.1752,0.1738,0.1744,0.1779,0.1785,0.1791,0.1832,0.1833,0.184,0.1858,0.1864,0.1869,0.1912,0.1948,0.1896,0.1897,0.1977,0.198,0.1982,0.2042,0,0,0,0,0,0,0.1707,0.1713,0.1735,0.1738,0.1745,0.1781,0.1784,0.1791,0.1833,0.1839,0.1868,0.1872,0.1866,0.191,0.1913,0.1949,0.1898,0.1975,0.1978,0.1981,0.2038,0.2047,0.2054,0,0,0,0,0,0.1705,0.1722,0.1735,0.1741,0.1768,0.1783,0.1787,0.1814,0.1835,0.1856,0.188,0.1874,0.1931,0.1912,0.1915,0.1952,0.1974,0.1977,0.1981,0.2035,0.2045,0.2053,0,0,0,0,0,0,0.171,0.1728,0.1743,0.1766,0.1787,0.1792,0.182,0.1835,0.187,0.1889,0.189,0.1896,0.1949,0.1941,0.192,0.1986,0.1953,0.1957,0.1993,0.2003,0.201,0.202,0.1899,0,0,0,0,0,0.172,0.1743,0.1756,0.1781,0.1795,0.1815,0.1834,0.1852,0.1873,0.1892,0.1912,0.1936,0.1957,0.1975,0.199,0.2021,0.2023,0.2049,0.2056,0.2063,0.2074,0.2106,0.2118,0.1994,0.1994,0.1994,0,0,0.173,0.1745,0.176,0.1786,0.1806,0.1828,0.183,0.1868,0.1897,0.1891,0.1951,0.1967,0.1973,0.2013,0.2036,0.2017,0.21,0.2067,0.2073,0.208,0.2111,0.2123,0.2134,0.1997,0.1996,0.1996,0,0,0.1747,0.1776,0.1797,0.1818,0.1856,0.1866,0.1886,0.1914,0.1944,0.1989,0.1998,0.204,0.2069,0.2082,0.2089,0.2148,0.2142,0.2159,0.2203,0.2235,0.2245,0.2254,0.2273,0.2284,0.2159,0.216,0.216,0,0.1764,0.1785,0.1807,0.1831,0.1854,0.1887,0.1912,0.1942,0.1985,0.2013,0.2021,0.209,0.21,0.2145,0.217,0.2166,0.218,0.2166,0.2245,0.2254,0.2262,0.2279,0.229,0.2163,0.2163,0.2162,0.2162,0,0.178,0.1815,0.1832,0.1872,0.19,0.1931,0.1966,0.201,0.2051,0.2078,0.2149,0.2167,0.2207,0.222,0.2215,0.2282,0.2272,0.2252,0.222,0.2278,0.2293,0.2303,0.2168,0.2167,0.2166,0.2165,0,0,0.1767,0.183,0.1841,0.1867,0.1926,0.1943,0.2004,0.2055,0.2105,0.2158,0.2217,0.2266,0.2293,0.2304,0.2311,0.2342,0.2413,0.2331,0.2331,0.2348,0.2486,0.2322,0.2316,0.2412,0.2414,0.2416,0.2472,0,0.1776,0.1821,0.1855,0.1909,0.1931,0.1984,0.2035,0.2093,0.2151,0.2219,0.2261,0.2325,0.2319,0.2355,0.2387,0.2413,0.2443,0.24,0.2429,0.243,0.2275,0.2323,0.2423,0.248,0.2482,0.2483,0.2485,0,0.1771,0.1804,0.1855,0.1923,0.1941,0.1988,0.2075,0.2127,0.2225,0.2276,0.2349,0.2387,0.246,0.244,0.2515,0.2492,0.2502,0.2509,0.2511,0.2343,0.2284,0.241,0.2502,0.2501,0.25,0.2498,0.2497,0,0.1726,0.18,0.1842,0.1866,0.1951,0.1998,0.2054,0.2153,0.2209,0.2329,0.2385,0.2466,0.2522,0.2554,0.258,0.2563,0.2645,0.2613,0.2472,0.246,0.2565,0.2555,0.2662,0.2662,0.2662,0.2662,0.2662,0,0.1696,0.1735,0.1834,0.1855,0.192,0.199,0.2074,0.2148,0.2259,0.2322,0.2421,0.247,0.2559,0.2607,0.2612,0.257,0.2672,0.2488,0.2465,0.2589,0.2581,0.2572,0.2561,0.2664,0.2663,0.2663,0.2663,0,0.1634,0.17,0.1754,0.186,0.1901,0.1951,0.2079,0.2128,0.2256,0.2341,0.2386,0.2506,0.2562,0.2618,0.2674,0.2594,0.258,0.2539,0.2678,0.2661,0.2367,0.2359,0.238,0.2374,0.237,0.2366,0.2363,0,0.16,0.1625,0.1749,0.1785,0.1841,0.193,0.1983,0.2117,0.2166,0.2331,0.235,0.2465,0.252,0.2467,0.2542,0.2536,0.2503,0.2477,0.2409,0.2364,0.234,0.2339,0.2337,0.2356,0.2355,0.2353,0.2352,0,0.1533,0.1599,0.1644,0.1723,0.1789,0.1844,0.1934,0.1956,0.2095,0.2231,0.2255,0.2277,0.2333,0.2358,0.2376,0.2365,0.2481,0.243,0.2438,0.2373,0.2335,0.2316,0.2319,0.2337,0.2339,0.234,0.2341,0,0.1492,0.1508,0.1582,0.1634,0.1711,0.1726,0.1787,0.183,0.1895,0.2068,0.2071,0.2186,0.2306,0.2271,0.2286,0.2265,0.2222,0.2135,0.2158,0.2176,0.2081,0.2,0.1885,0,0,0,0,0,0.1436,0.1437,0.148,0.1518,0.1587,0.1633,0.1733,0.1793,0.1927,0.1889,0.1973,0.2009,0.2026,0.209,0.2026,0.2198,0.2236,0.2113,0.2149,0.225,0.2268,0.2173,0,0,0,0,0,0,0.1394,0.1434,0.1439,0.141,0.1417,0.1471,0.1531,0.1622,0.1606,0.1753,0.1774,0.1885,0.1936,0.2042,0.1988,0.2006,0.1984,0.2192,0.2186,0.224,0.2256,0.2271,0.2179,0,0,0,0,0]},{"header":{"parameterUnit":"m.s-1","parameterCategory":2,"la1":30.2991,"la2":30.254,"lo1":-89.0895,"lo2":-89.0444,"dy":0.0017,"dx":0.0017,"nx":28,"ny":28,"refTime":"2025-11-05T09:00:00:Z","depth":"4","parameterNumber":3,"parameterNumberName":"V-component_of_CURRENTS"},"data":[0,0,0,0,0,0,0,0,0,0,0,0,0,0,0,0,0,0,0,0,0,0,0,0,0,0,0,0,0,0,0,0,0,0,0,0,0,0,0,0,0,0,0,0,0,0,0,0,0,0,0,0,0,0,0,0,0,0,0.0242,0.0242,0,0.0219,0.0219,0.0219,0.021,0.021,0.021,0.021,0.018,0.0179,0.0179,0,0,0,0,0,0,0,0,0,0,0,0,0,0.0238,0.0239,0.0242,0.0242,0.0242,0.022,0.0219,0.0219,0.021,0.021,0.021,0.021,0.0181,0.018,0.0179,0,0,0,0,0,0,0,0,0,0,0,0,0,0.023,0.0239,0.0242,0.0235,0.0234,0.022,0.0219,0.0219,0.021,0.021,0.021,0.021,0.0181,0.018,0.0178,0.0167,0,0,0.0174,0.0174,0,0,0,0,0,0,0,0,0.023,0.023,0.0236,0.0235,0.0234,0.0218,0.0207,0.0201,0.021,0.0218,0.021,0.021,0.0192,0.019,0.0185,0.0166,0.0164,0.0174,0.0173,0.0173,0.0172,0,0,0,0,0,0,0,0.0231,0.0231,0.0233,0.0236,0.0235,0.0219,0.0219,0.0206,0.0204,0.0218,0.0217,0.0215,0.0192,0.0186,0.0184,0.0164,0.0174,0.0173,0.0172,0.0172,0.0143,0.0143,0,0,0,0,0,0,0.0237,0.0231,0.0233,0.0232,0.0233,0.0219,0.0219,0.0223,0.0205,0.0202,0.0215,0.0215,0.0189,0.0186,0.0183,0.0187,0.0173,0.0172,0.0171,0.0143,0.0143,0.0143,0,0,0,0,0,0,0.0237,0.0237,0.0234,0.0231,0.023,0.022,0.0224,0.0222,0.0222,0.0203,0.02,0.0218,0.0189,0.0185,0.018,0.0185,0.0171,0.017,0.0143,0.0143,0.0143,0.0184,0,0,0,0,0,0,0.0237,0.0238,0.0244,0.0232,0.023,0.0232,0.0224,0.0222,0.0221,0.022,0.0204,0.0201,0.0188,0.0182,0.0178,0.0183,0.0169,0.0143,0.0143,0.0143,0.0182,0.0185,0.0187,0,0,0,0,0,0.0237,0.0246,0.0245,0.0245,0.0239,0.0233,0.0231,0.0223,0.0221,0.0223,0.0214,0.0202,0.0179,0.0181,0.0177,0.0182,0.0143,0.0143,0.0143,0.0181,0.0185,0.0187,0,0,0,0,0,0,0.0246,0.0246,0.0244,0.0253,0.0246,0.0232,0.0233,0.0227,0.0221,0.0223,0.0205,0.0201,0.0197,0.0182,0.0184,0.0172,0.0158,0.0157,0.0189,0.0192,0.0194,0.0207,0.0168,0,0,0,0,0,0.0252,0.0261,0.0253,0.026,0.0259,0.0247,0.0244,0.0239,0.0231,0.0228,0.0217,0.0203,0.0193,0.0188,0.0175,0.017,0.0147,0.0168,0.0171,0.0173,0.018,0.0149,0.0149,0.0143,0.0143,0.0143,0,0,0.0257,0.0258,0.0263,0.0263,0.0257,0.0263,0.0246,0.0246,0.0251,0.0226,0.023,0.0213,0.0193,0.0189,0.0185,0.0179,0.0161,0.0173,0.0176,0.0181,0.0149,0.0149,0.015,0.0143,0.0143,0.0143,0,0,0.0271,0.0273,0.0285,0.0284,0.0281,0.0276,0.0279,0.0269,0.0265,0.0263,0.0247,0.0236,0.0219,0.0207,0.0198,0.0206,0.0176,0.0199,0.0225,0.0194,0.0194,0.0195,0.0162,0.0159,0.0201,0.0201,0.0201,0,0.0277,0.0294,0.0286,0.0297,0.0303,0.0286,0.0301,0.0293,0.0282,0.0283,0.0271,0.0246,0.0228,0.0223,0.0227,0.0213,0.0189,0.0217,0.0198,0.0198,0.0197,0.0164,0.016,0.0203,0.0203,0.0203,0.0203,0,0.03,0.0315,0.0321,0.0335,0.0338,0.0347,0.0338,0.0337,0.033,0.0324,0.0315,0.0284,0.0272,0.026,0.0248,0.0237,0.0219,0.0205,0.0193,0.02,0.0164,0.0159,0.0206,0.0205,0.0205,0.0204,0,0,0.0314,0.0335,0.0339,0.0357,0.0362,0.0369,0.0375,0.0381,0.0395,0.0367,0.0374,0.0345,0.0328,0.0317,0.0291,0.0263,0.0236,0.0238,0.0235,0.0211,0.0165,0.015,0.0143,0.0218,0.0218,0.0217,0.014,0,0.0337,0.0372,0.0375,0.041,0.0429,0.0421,0.0433,0.0434,0.043,0.0431,0.0388,0.0388,0.035,0.0347,0.0312,0.026,0.0226,0.0258,0.0157,0.0155,0.0144,0.0138,0.0216,0.0137,0.0135,0.0135,0.0134,0,0.0361,0.0385,0.0425,0.0459,0.0467,0.0485,0.051,0.052,0.0512,0.0509,0.0488,0.0458,0.0418,0.0382,0.0286,0.0309,0.0244,0.0193,0.0188,0.0159,0.013,0.0127,0.0125,0.0125,0.0126,0.0127,0.0127,0,0.0381,0.042,0.0459,0.047,0.0501,0.0519,0.0537,0.0547,0.0571,0.0562,0.0573,0.0513,0.0491,0.0398,0.0293,0.0291,0.0179,0.0161,0.008,0.0078,0.0098,0.0098,0.0088,0.0088,0.0088,0.0089,0.0089,0,0.0406,0.0438,0.0475,0.0496,0.055,0.0557,0.0613,0.0618,0.0639,0.0674,0.062,0.0619,0.0495,0.0415,0.0308,0.0181,0.0187,0.0084,0.0058,0.0115,0.0119,0.0094,0.0095,0.0086,0.0086,0.0087,0.0087,0,0.0422,0.0444,0.0494,0.0541,0.0562,0.0602,0.0671,0.0709,0.0721,0.0758,0.0758,0.0701,0.0598,0.046,0.031,0.0211,0.0085,0.0036,0.0108,0.0088,-0.0002,0.0003,-0.0062,-0.0063,-0.0064,-0.0065,-0.0065,0,0.0432,0.0459,0.0532,0.0572,0.0599,0.0663,0.0711,0.0748,0.0793,0.0806,0.0822,0.0742,0.068,0.0459,0.031,0.0096,0.0063,-0.0011,-0.001,0.0002,-0.0017,-0.0011,-0.0005,-0.0067,-0.0067,-0.0067,-0.0068,0,0.0453,0.0481,0.0524,0.061,0.0671,0.0746,0.0814,0.085,0.0888,0.0898,0.0874,0.0759,0.064,0.0463,0.0297,0.0143,0.0032,-0.0022,-0.0021,-0.0021,-0.0005,-0.0022,-0.0015,-0.0071,-0.0071,-0.007,-0.007,0,0.0471,0.0505,0.0567,0.0642,0.0723,0.0799,0.0838,0.0882,0.0922,0.0927,0.0916,0.0785,0.0713,0.0487,0.0336,0.0181,0.0137,0.0075,0.007,0.0072,0.013,0.0171,0.0137,0,0,0,0,0,0.0486,0.0525,0.0595,0.0677,0.0759,0.0812,0.0893,0.0924,0.0955,0.0944,0.0932,0.0819,0.0596,0.0508,0.0351,0.0305,0.0103,0.0114,0.0028,-0.009,-0.0086,-0.0043,0,0,0,0,0,0,0.0494,0.0558,0.0591,0.0692,0.0754,0.085,0.0905,0.093,0.0927,0.093,0.0822,0.0766,0.0558,0.0687,0.0345,0.0299,0.0218,0.0015,0.0011,-0.0092,-0.0089,-0.0086,-0.004,0,0,0,0,0]}]]